Wind_Speed
45 47 48 52 52 51 51 53 54 57 58 72 78 79 82 79 64 51 57 51 68 62 59 54 52 51 49 49 48 48 46 46 45 44 42 41 39 39 38 38 38 39 39
44 44 48 46 44 44 45 48 50 55 53 60 74 80 78 71 76 76 63 66 67 63 61 60 56 54 52 50 49 50 49 48 49 48 48 46 45 45 43 42 44 45 44
42 35 37 35 34 35 38 42 46 53 51 53 61 76 79 80 70 57 75 53 66 63 73 63 62 56 54 53 52 51 51 50 50 51 50 51 50 49 48 48 49 50 50
35 29 24 23 27 30 32 39 44 46 48 49 56 62 74 80 77 65 65 78 63 58 57 73 67 61 57 55 53 53 53 52 51 51 52 52 52 52 52 52 53 54 56
28 20 17 17 25 31 31 36 40 42 45 52 53 57 64 76 79 75 71 71 71 53 65 69 67 63 59 56 54 54 55 54 53 53 54 52 53 54 53 54 57 59 64
20 17 18 24 26 27 31 35 36 39 42 44 51 56 57 64 72 78 75 64 59 48 40 60 65 73 58 59 56 54 56 55 53 52 53 53 52 55 62 56 61 65 64
20 19 23 23 22 26 28 24 24 29 34 35 40 47 51 51 61 72 73 78 46 55 55 51 59 44 65 68 60 57 56 56 55 55 55 56 59 58 59 62 65 69 62
21 21 23 22 23 24 24 26 24 25 25 30 31 35 38 45 50 67 62 64 67 49 42 46 45 43 65 64 61 60 60 59 57 56 56 58 64 65 64 62 64 67 57
22 23 24 20 19 19 19 18 19 22 23 25 29 30 33 40 41 56 37 52 68 76 68 59 45 50 57 63 65 64 65 60 57 58 61 60 64 66 65 64 62 51 53
23 21 19 17 16 16 15 15 16 21 22 24 26 29 31 29 32 29 55 50 60 61 48 54 47 52 53 55 55 62 72 68 68 64 64 62 66 67 68 62 52 51 39
21 16 17 16 15 13 12 12 12 15 18 19 21 27 29 27 27 31 41 49 60 57 43 35 43 44 43 46 49 59 61 71 72 69 65 64 62 67 53 47 39 36 38
18 16 16 16 14 13 9 8 8 9 12 15 20 23 29 30 34 20 21 33 47 64 51 31 35 33 29 30 41 48 53 47 40 48 51 54 54 53 35 35 39 41 45
18 19 19 19 17 12 10 8 5 5 5 13 19 24 27 21 24 30 19 23 39 43 45 35 33 26 26 25 24 23 25 32 37 38 36 37 37 29 30 37 43 46 53
20 23 25 20 16 12 9 9 8 6 5 7 9 19 23 27 33 19 21 22 20 28 30 26 31 25 25 24 20 20 23 22 12 13 15 19 25 31 39 43 45 46 44
22 23 25 21 16 11 10 8 8 8 8 8 7 8 18 21 20 19 22 24 23 23 27 25 23 19 18 18 14 15 22 21 23 17 21 26 29 31 35 40 41 41 41
20 20 23 20 11 5 11 14 12 10 9 9 8 10 17 20 23 19 15 22 22 21 18 19 19 18 13 14 17 23 29 27 23 26 28 28 32 35 35 36 35 37 43
19 20 20 20 8 11 10 9 10 16 13 12 11 14 20 24 23 30 26 16 25 26 25 27 25 23 21 18 18 20 29 25 24 31 31 34 37 36 33 33 39 42 44
15 16 17 19 8 8 8 9 9 10 20 15 14 17 14 22 16 24 23 23 22 24 20 18 24 24 22 22 21 20 20 23 32 37 40 38 30 30 33 36 40 44 46
12 12 13 16 9 9 8 5 1 6 12 14 14 21 9 24 22 19 24 26 23 25 23 25 22 23 22 23 23 22 25 30 32 37 33 29 31 33 35 38 40 44 47
8 9 9 11 11 5 5 7 8 9 15 15 12 13 9 13 23 26 15 15 20 22 26 24 20 19 20 21 22 24 27 31 30 24 27 28 31 33 36 37 41 44 47
8 6 6 6 7 5 3 4 4 6 14 12 15 14 15 10 19 18 17 16 16 19 19 17 17 19 21 25 28 30 22 20 23 25 27 29 30 32 36 38 42 47 51
12 8 6 4 5 5 4 3 2 6 8 7 8 10 15 16 18 14 17 22 20 18 19 19 20 21 18 21 25 19 18 21 24 25 26 28 30 33 36 41 45 49 53
12 13 11 9 5 1 1 2 4 4 5 7 9 9 10 11 11 11 16 19 22 20 19 19 20 17 21 18 17 18 20 22 23 25 27 29 31 36 41 46 51 55 57
7 7 8 12 10 7 3 3 2 4 3 2 9 11 10 8 8 9 13 17 18 17 16 19 22 20 17 17 18 19 21 22 24 26 28 32 37 42 46 51 54 55 56
10 6 5 7 9 9 10 8 6 5 5 5 5 7 10 8 8 10 13 15 17 17 19 18 16 15 15 16 18 20 22 24 26 30 34 38 42 46 50 52 54 55 56
16 13 10 8 9 8 9 11 11 8 7 8 8 10 12 14 15 17 18 18 17 14 12 11 12 14 16 18 19 21 24 27 31 35 39 42 46 49 51 53 53 54 56
Wind_Direction
299 294 281 271 267 261 253 247 244 241 236 233 233 234 230 235 239 236 233 230 240 234 234 234 235 235 234 237 237 237 237 239 241 241 243 244 248 253 258 263 267 270 273
301 289 281 275 269 261 255 249 244 243 239 235 231 232 232 235 237 236 242 231 238 227 232 236 234 236 234 235 238 239 239 240 242 245 246 249 251 254 258 261 266 272 275
307 293 277 268 265 263 258 254 247 244 240 237 234 231 231 229 225 238 239 247 242 237 233 234 235 235 237 236 236 238 241 241 244 247 249 252 255 258 262 264 269 274 276
312 300 277 266 263 269 263 256 250 247 243 239 236 234 229 230 226 231 230 243 241 237 244 232 237 236 236 238 239 239 240 242 243 249 253 255 257 261 264 267 270 273 274
320 308 286 281 282 281 269 258 255 249 247 241 237 235 233 230 228 230 232 238 241 252 244 240 229 236 237 238 241 242 244 244 246 246 250 254 259 263 265 267 269 272 273
325 318 304 290 286 277 274 267 259 250 246 244 240 235 234 233 231 229 228 227 227 236 236 238 249 233 238 239 240 242 245 246 250 252 253 253 257 261 259 264 267 268 273
324 319 311 302 290 281 276 266 253 245 246 245 240 233 233 234 234 231 230 228 234 240 246 253 243 258 249 236 236 240 244 247 247 250 252 255 254 258 262 260 264 268 272
316 309 315 301 290 290 279 260 252 236 237 232 230 229 230 233 234 230 234 227 224 234 236 240 246 259 248 227 236 239 242 243 247 248 251 255 257 261 263 268 270 272 283
326 319 315 306 298 299 288 270 247 238 239 237 225 226 229 231 234 229 213 227 231 234 242 247 242 253 246 235 238 241 241 243 247 249 250 254 260 262 263 267 276 283 288
326 326 326 317 308 303 293 276 252 246 246 245 233 217 221 220 213 225 228 236 228 229 236 246 248 248 244 259 262 259 251 246 245 246 248 250 255 261 264 274 283 275 265
324 328 327 324 314 300 297 280 261 251 243 242 225 221 214 201 211 226 236 232 222 215 221 228 235 238 247 251 257 251 255 252 246 246 248 250 254 261 280 275 260 259 267
331 330 325 320 312 302 284 282 268 255 243 236 224 213 205 205 214 225 248 227 225 228 225 244 228 231 236 258 269 270 269 263 263 261 263 267 270 272 260 263 263 268 276
338 334 321 306 301 300 272 263 252 254 240 225 226 201 182 182 204 211 174 211 223 230 240 231 222 224 241 242 247 243 237 246 253 258 261 262 259 256 265 271 275 278 282
334 336 332 327 299 277 264 248 243 221 212 218 203 201 193 199 223 214 216 206 195 207 224 221 211 195 206 219 221 235 243 230 232 241 244 247 254 265 269 274 280 284 287
332 340 340 336 331 256 268 226 229 224 209 216 208 202 183 186 192 189 167 179 192 186 190 191 197 191 203 209 248 240 228 237 267 265 272 274 274 274 279 280 281 285 289
333 338 344 346 349 335 239 228 220 205 212 211 196 181 171 171 179 174 166 179 185 189 186 176 192 194 226 247 250 228 235 244 261 270 280 275 274 279 281 283 290 295 297
325 335 351 357 351 21 359 328 235 208 202 203 193 176 166 170 156 174 188 189 193 196 211 201 200 208 213 218 230 250 242 256 274 287 287 286 284 283 286 295 297 297 299
322 331 350 8 2 13 7 323 293 196 206 206 214 177 190 179 190 191 209 197 209 194 222 225 217 213 208 223 228 243 267 280 278 280 285 286 287 295 297 297 299 302 305
324 337 355 7 16 24 13 340 113 204 200 208 208 206 183 180 163 187 199 193 216 218 202 214 222 226 237 234 240 263 274 281 279 279 280 290 296 297 300 303 307 309 312
316 334 357 9 22 22 19 45 103 131 187 179 176 202 215 188 195 200 222 222 202 216 209 216 228 240 243 253 258 266 279 283 277 281 289 294 298 302 306 311 314 314 312
288 313 339 7 21 25 17 48 71 110 138 157 177 193 201 184 181 195 217 222 225 211 217 235 247 248 253 261 268 279 274 284 290 292 295 301 303 311 314 315 315 317 315
285 286 303 312 347 16 36 194 166 141 157 164 177 195 202 206 197 212 209 206 216 221 235 245 250 264 269 273 267 271 284 288 289 295 301 305 310 313 317 318 319 320 320
277 271 272 280 295 340 82 92 166 178 194 203 197 180 200 213 216 212 208 214 219 239 257 268 272 265 266 283 285 286 284 290 298 303 308 309 312 317 320 320 321 321 321
269 286 268 268 271 260 208 161 147 146 144 157 195 179 176 189 201 206 224 234 245 258 265 264 258 265 265 272 277 286 292 295 298 301 305 311 317 319 316 317 320 321 321
262 268 279 289 276 268 251 235 240 231 219 205 195 186 188 197 212 230 234 239 243 244 248 250 251 259 272 283 286 288 292 298 303 308 311 311 310 311 316 320 323 323 322
257 268 274 284 277 268 261 256 258 255 236 217 215 215 216 218 222 229 235 238 237 236 242 254 267 274 277 281 288 295 302 306 307 306 306 309 314 317 320 322 323 321 320
Height
5673 5667 5663 5661 5661 5663 5665 5667 5670 5674 5679 5686 5692 5698 5706 5710 5720 5726 5724 5736 5745 5749 5757 5763 5767 5772 5777 5781 5785 5789 5792 5795 5798 5799 5801 5802 5804 5805 5805 5805 5805 5804 5803
5658 5651 5645 5645 5646 5649 5650 5653 5657 5657 5665 5669 5675 5681 5689 5696 5707 5716 5716 5725 5732 5735 5745 5753 5756 5763 5767 5771 5776 5780 5783 5786 5789 5791 5793 5795 5796 5797 5797 5797 5797 5796 5794
5642 5639 5633 5632 5634 5637 5639 5640 5642 5644 5651 5656 5658 5665 5674 5683 5695 5703 5710 5712 5718 5723 5733 5741 5747 5752 5759 5761 5765 5770 5774 5776 5780 5783 5785 5786 5789 5788 5789 5789 5788 5787 5786
5631 5627 5625 5626 5627 5628 5629 5629 5629 5634 5639 5642 5645 5651 5659 5667 5678 5686 5693 5700 5707 5715 5720 5727 5737 5743 5747 5752 5757 5760 5764 5767 5769 5773 5776 5778 5780 5781 5781 5780 5779 5778 5776
5623 5621 5620 5620 5620 5619 5619 5618 5619 5624 5625 5628 5632 5637 5643 5653 5662 5669 5683 5690 5697 5708 5708 5717 5723 5732 5738 5742 5747 5751 5754 5758 5760 5763 5766 5769 5771 5771 5771 5769 5769 5767 5765
5620 5618 5616 5614 5612 5610 5608 5607 5608 5609 5610 5614 5620 5626 5633 5641 5649 5658 5670 5681 5691 5695 5699 5708 5714 5720 5726 5732 5737 5741 5745 5748 5751 5754 5757 5758 5759 5760 5759 5758 5756 5755 5752
5619 5615 5612 5608 5605 5602 5600 5597 5597 5598 5600 5604 5607 5615 5623 5630 5636 5647 5657 5670 5678 5685 5692 5700 5703 5708 5714 5718 5724 5729 5735 5739 5741 5743 5746 5747 5746 5746 5746 5745 5743 5741 5738
5616 5612 5608 5604 5600 5596 5593 5592 5591 5591 5593 5596 5600 5606 5613 5620 5628 5638 5647 5657 5667 5673 5681 5690 5694 5697 5701 5704 5712 5717 5722 5726 5729 5731 5733 5734 5733 5734 5734 5734 5733 5730 5728
5612 5608 5603 5599 5595 5591 5588 5587 5587 5588 5589 5591 5594 5600 5605 5613 5620 5629 5639 5643 5657 5667 5673 5682 5684 5689 5693 5696 5702 5707 5710 5713 5718 5720 5721 5723 5723 5722 5721 5722 5722 5720 5718
5608 5603 5599 5596 5592 5588 5586 5584 5584 5585 5586 5587 5589 5594 5600 5608 5618 5619 5630 5636 5645 5656 5666 5671 5676 5683 5684 5692 5697 5698 5700 5702 5703 5705 5707 5709 5708 5709 5709 5710 5710 5708 5705
5604 5600 5596 5593 5590 5586 5584 5582 5581 5581 5581 5582 5584 5589 5595 5605 5612 5613 5621 5628 5639 5647 5657 5662 5670 5672 5675 5682 5686 5688 5690 5691 5690 5691 5693 5696 5696 5698 5702 5700 5698 5697 5695
5601 5597 5593 5589 5587 5585 5582 5580 5579 5578 5577 5578 5580 5584 5591 5600 5607 5608 5612 5620 5630 5638 5645 5654 5659 5664 5668 5672 5677 5681 5684 5687 5688 5687 5689 5689 5690 5692 5692 5692 5690 5688 5685
5600 5594 5590 5586 5583 5581 5580 5579 5577 5576 5576 5576 5578 5582 5588 5595 5600 5607 5611 5616 5620 5630 5638 5646 5651 5657 5663 5667 5671 5673 5676 5678 5679 5678 5678 5679 5680 5683 5683 5682 5680 5677 5674
5597 5592 5587 5582 5577 5576 5577 5577 5577 5576 5575 5575 5576 5581 5586 5594 5598 5604 5606 5613 5619 5624 5631 5640 5648 5652 5657 5663 5666 5669 5671 5674 5674 5673 5674 5674 5675 5674 5673 5672 5670 5666 5662
5596 5590 5585 5579 5574 5573 5573 5575 5576 5577 5576 5576 5577 5578 5584 5591 5596 5602 5604 5610 5617 5623 5630 5636 5645 5647 5652 5656 5659 5662 5665 5667 5668 5669 5669 5667 5666 5666 5664 5661 5658 5655 5650
5595 5590 5584 5578 5574 5571 5571 5572 5574 5575 5577 5578 5579 5581 5585 5590 5595 5599 5607 5609 5615 5622 5627 5631 5638 5642 5646 5650 5654 5657 5659 5660 5660 5662 5662 5660 5659 5657 5653 5650 5647 5643 5641
5593 5588 5583 5578 5574 5572 5570 5569 5570 5573 5576 5578 5579 5582 5584 5589 5594 5597 5604 5609 5614 5619 5625 5629 5631 5636 5641 5644 5649 5650 5651 5652 5652 5654 5653 5651 5649 5647 5644 5640 5638 5634 5628
5591 5588 5583 5578 5575 5572 5570 5568 5567 5571 5574 5577 5580 5583 5587 5589 5591 5597 5602 5607 5613 5617 5620 5624 5628 5632 5636 5639 5641 5644 5644 5645 5646 5646 5645 5643 5640 5638 5635 5633 5629 5625 5619
5590 5587 5584 5579 5576 5573 5571 5569 5568 5568 5572 5575 5581 5584 5587 5591 5594 5599 5603 5607 5610 5614 5618 5623 5626 5629 5632 5634 5637 5637 5638 5638 5638 5638 5636 5635 5633 5629 5627 5622 5616 5612 5606
5589 5587 5584 5581 5577 5575 5574 5572 5571 5569 5572 5576 5581 5584 5587 5590 5593 5598 5601 5604 5608 5613 5616 5620 5623 5625 5627 5628 5629 5631 5632 5631 5631 5629 5629 5626 5624 5620 5616 5611 5606 5601 5596
5586 5585 5584 5581 5579 5577 5576 5575 5574 5574 5574 5577 5580 5583 5586 5589 5592 5596 5600 5603 5607 5610 5614 5616 5618 5619 5620 5623 5624 5626 5625 5624 5624 5623 5620 5617 5615 5610 5605 5601 5597 5590 5584
5583 5582 5582 5581 5579 5578 5576 5576 5576 5577 5578 5579 5581 5583 5585 5588 5590 5593 5596 5600 5605 5608 5610 5612 5613 5615 5616 5617 5618 5617 5618 5619 5618 5616 5613 5610 5606 5601 5597 5592 5585 5577 5571
5578 5579 5579 5579 5579 5579 5578 5577 5577 5577 5579 5580 5581 5582 5584 5586 5588 5592 5595 5599 5602 5604 5605 5607 5607 5609 5610 5611 5612 5613 5613 5612 5610 5606 5603 5601 5597 5592 5585 5579 5574 5567 5559
5575 5575 5575 5575 5576 5577 5577 5577 5577 5577 5578 5579 5580 5582 5584 5586 5588 5591 5593 5595 5598 5600 5601 5603 5604 5605 5606 5607 5608 5608 5606 5604 5602 5599 5596 5591 5585 5580 5577 5571 5563 5555 5546
5570 5571 5572 5572 5572 5573 5574 5575 5576 5577 5578 5578 5579 5580 5581 5583 5585 5588 5591 5593 5595 5596 5598 5599 5600 5601 5602 5602 5601 5600 5598 5596 5593 5589 5586 5582 5578 5574 5566 5557 5548 5539 5530
5566 5567 5567 5569 5570 5570 5570 5571 5572 5574 5575 5575 5576 5577 5579 5580 5583 5585 5587 5588 5590 5592 5593 5594 5595 5596 5596 5595 5594 5592 5590 5587 5584 5582 5578 5573 5567 5560 5552 5544 5535 5527 5519